Find SRMSAT

NORAD ID: 37841 Int'l Des: 2011-058 Owner: SRMU Country: IN operational
LEOCIRCULAR

Live Position

Loading 3D Globe...

About SRMSAT

Description loading...

Upcoming Passes

Passes for default location (London). Set your location on the main map for personalized predictions.

Altitude History

Loading altitude history...

Two-Line Element Set

1 37841U 11058D 26110.55623616 .00000361 00000-0 51857-4 0 9992
2 37841 19.9728 48.2936 0011580 289.8127 227.1163 14.11561432749667
Epoch: Apr 20, 2026 • Age: 12 hours

Current Status

Altitude 848.1 km
Velocity 7.43 km/s
Sub-Earth Point -19.61°S, 91.54°E
Launch Date Oct 12, 2011
Age 14.5 years
Type other

Technical Details

Classification Payload
Mass 10.00 kg
Dry Mass 10.00 kg
Total Mass 10.00 kg
Length 0.30 m
Diameter 0.30 m
Span 0.30 m
Shape Box
Manufacturer SRMU
Bus Type SRMSAT
Phase Status In Orbit
Owner/State SRMU/IN

Most Searched